Regional Weather Roundup
Issued by NWS

Home | Current Version | Previous Version | Text Only | Print | Product List | Glossary On
Versions: 1 2 3 4 5 6 7 8 9 10 11 12 13 14 15 16 17 18 19 20 21 22 23 24 25 26 27 28 29 30 31 32 33 34 35 36 37 38 39 40 41 42 43 44 45 46 47 48 49 50
692
ASUS44 KLIX 301405
RWRLA
LOUISIANA WEATHER ROUNDUP
NATIONAL WEATHER SERVICE NEW ORLEANS LA
900 AM CDT WED JUL 30 2014

NOTE: "FAIR" INDICATES FEW OR NO CLOUDS BELOW 12,000 FEET WITH NO
      SIGNIFICANT WEATHER AND/OR OBSTRUCTIONS TO VISIBILITY.
      SKY/WX - SKY CONDITION AND SIGNIFICANT WEATHER.
      TMP - AIR TEMPERATURE.    DP   - DEWPOINT TEMPERATURE.
      RH  - RELATIVE HUMIDITY.  PRES - PRESSURE.
      HX  - HEAT INDEX.         WCI  - WIND CHILL INDEX.

*  THESE STATIONS ARE NOT NWS OR FAA STATIONS AND ARE NOT UNDER
   NWS QUALITY CONTROL.

LAZ040-048-061>063-065-066-069-301500-
SOUTHEAST LOUISIANA

CITY           SKY/WX    TMP DP  RH WIND       PRES   REMARKS
N.O. AUDUBON     N/A     83  64  53 MISG        N/A
N.O. INTL ARPT MOSUNNY   80  63  55 NE13      30.07S
N.O. LAKEFRONT MOSUNNY   78  61  55 NE10      30.08S
N.O. DOWNTOWN* FAIR      79  59  50 N3        30.08R
SLIDELL        SUNNY     75  61  61 N7        30.08R
BATON ROUGE    SUNNY     75  62  64 NE8       30.09S
BOOTHVILLE     SUNNY     81  68  64 NE7       30.06S
BELLE CHASSE   MOSUNNY   78  64  61 NE9       30.07R
BOGALUSA*        N/A     74  61  64 NE6       30.11S
GALLIANO*      NOT AVBL
NEW ROADS*     FAIR      74  63  69 NE5       30.10S
GONZALES*      FAIR      75  66  74 N5        30.08S
HAMMOND*       SUNNY     75  59  57 NE5       30.11S
HOUMA*         SUNNY     79  64  61 NE6       30.07S
PORT FOURCHON* SUNNY     81  72  74 NE9       30.07S

$$

LAZ041-044-053-054-301500-
SOUTHWEST LOUISIANA

CITY           SKY/WX    TMP DP  RH WIND       PRES   REMARKS
LAKE CHARLES   SUNNY     77  67  71 E8        30.08R
LAFAYETTE      SUNNY     76  66  71 E5        30.09R
PATTERSON      SUNNY     79  70  73 E8        30.11S
SALT POINT       N/A     80  71  74 VRB5      30.06S
NEW IBERIA     SUNNY     77  66  68 NE8       30.09S
CHENAULT AIRPK MOSUNNY   77  66  69 E6        30.09R

$$

LAZ027-028-301500-
CENTRAL LOUISIANA

CITY           SKY/WX    TMP DP  RH WIND       PRES   REMARKS
FORT POLK      SUNNY     77  62  59 E7        30.10R
ALEXANDRIA INT SUNNY     77  61  57 E6        30.09S
ALEXANDRIA     SUNNY     76  65  68 E5        30.11S

$$

LAZ001-002-301500-
NORTHWEST LOUISIANA

CITY           SKY/WX    TMP DP  RH WIND       PRES   REMARKS
SHREVEPORT     PTSUNNY   77  63  61 SE7       30.10F
BARKSDALE AFB  MOSUNNY   74  63  67 SE7       30.11S
DTN SHREVEPORT MOSUNNY   76  62  62 SE6       30.11S

$$

LAZ014-016-301500-
NORTHEAST LOUISIANA

CITY           SKY/WX    TMP DP  RH WIND       PRES   REMARKS
MONROE         SUNNY     73  62  68 S3        30.13S
TALLULAH       SUNNY     73  60  63 SE3       30.13R

$$




USA.gov is the U.S. government's official web portal to all federal, state and local government web resources and services.